{"data":{"norad_id":24936,"epoch":"2026-05-24T08:27:38.529792Z","epoch_age_seconds":127414,"freshness":"FRESH","line1":"1 24936U 97050A   26144.35252928 -.00000266  00000+0  00000+0 0  9991","line2":"2 24936   8.0897  64.3594 0003024 359.2674 233.2192  1.00270769 52195","mean_motion":1.00270769,"eccentricity":0.0003024,"inclination_deg":8.0897,"raan_deg":64.3594,"arg_perigee_deg":359.2674,"mean_anomaly_deg":233.2192,"bstar":0,"rev_number":5219,"period_min":1436.1114553734,"perigee_km":35774.129084202,"apogee_km":35799.630486353,"semimajor_km":42165.016785278,"source":"CELESTRAK","updated_at":"2026-05-25T13:38:14.471531Z"}}